Location: Unspecified
(0.0000°N, 0.0000°E)
Time: 09:47:57
(UTC+00:00)

Vanguard 2 - All Passes

Search period start: 02 July 2015 00:00
Search period end: 12 July 2015 00:00
Orbit: 555 x 2942 km, 32.9° (Epoch: 30 June)

Date Brightness Start Highest point End Pass type
(mag) Time Alt. Az. Time Alt. Az. Time Alt. Az.
02 Jul - 01:13:30 10° SSW 01:23:30 17° S 01:33:47 10° SE visible
02 Jul - 03:26:04 10° SSW 03:40:31 32° SSE 03:52:10 10° E visible
02 Jul - 05:38:30 10° SW 05:54:15 72° SSE 06:03:54 10° ENE visible
02 Jul - 07:53:49 10° WSW 08:04:27 35° NW 08:11:07 10° NNE daylight
02 Jul - 16:43:55 10° NNW 16:48:22 27° NE 16:54:54 10° E daylight
02 Jul - 18:50:38 10° WNW 18:57:20 61° SSW 19:08:45 10° SE visible
02 Jul - 21:01:47 10° WSW 21:09:52 24° SSW 21:20:39 10° SSE visible
02 Jul - 23:18:09 10° SW 23:26:02 15° S 23:34:46 10° SSE night (unlit)
03 Jul - 01:32:50 10° SSW 01:44:07 20° SSE 01:55:29 10° SE visible
03 Jul - 03:44:42 10° SW 04:00:23 40° SSE 04:12:19 10° E visible
03 Jul - 05:57:36 10° SW 06:13:18 87° NW 06:22:44 10° NE daylight
03 Jul - 08:14:32 10° W 08:23:11 24° NW 08:28:56 10° N daylight
03 Jul - 17:01:57 10° NW 17:06:56 46° NE 17:14:51 10° ESE daylight
03 Jul - 19:09:50 10° W 19:16:35 42° SSW 19:27:28 10° SE visible
03 Jul - 21:22:29 10° SW 21:29:56 19° SSW 21:39:10 10° SSE visible
03 Jul - 23:38:58 10° SSW 23:46:44 15° S 23:55:26 10° SSE night (unlit)
04 Jul - 01:51:44 10° SSW 02:04:32 24° SSE 02:16:58 10° ESE visible
04 Jul - 04:03:21 10° SW 04:20:02 51° SSE 04:32:01 10° ENE visible
04 Jul - 06:17:02 10° WSW 06:32:10 66° NW 06:41:20 10° NE daylight
04 Jul - 08:36:13 10° WNW 08:42:04 15° NW 08:46:10 10° N daylight
04 Jul - 17:20:21 10° NW 17:25:35 76° NE 17:34:16 10° ESE daylight
04 Jul - 19:29:26 10° W 19:36:04 30° SSW 19:45:57 10° SSE visible
04 Jul - 21:43:38 10° SW 21:50:12 15° S 21:57:51 10° SSE visible
04 Jul - 23:58:59 10° SSW 00:07:27 16° S 00:17:03 10° SE visible
05 Jul - 02:10:24 10° SSW 02:24:44 30° SSE 02:37:58 10° E visible
05 Jul - 04:22:08 10° SW 04:39:27 66° SSE 04:51:21 10° ENE visible
05 Jul - 06:36:51 10° WSW 06:50:57 48° NW 06:59:41 10° NNE daylight
05 Jul - 15:33:20 10° N 15:36:06 16° NE 15:39:37 10° ENE daylight
05 Jul - 17:39:04 10° WNW 17:44:25 67° SSW 17:53:18 10° SE daylight
05 Jul - 19:49:30 10° WSW 19:55:45 22° SSW 20:04:14 10° SSE visible
05 Jul - 22:05:01 10° SSW 22:10:37 13° S 22:17:00 10° SSE visible
06 Jul - 00:18:15 10° SSW 00:28:02 18° SSE 00:39:06 10° SE visible
06 Jul - 02:28:59 10° SW 02:44:40 38° SSE 02:58:28 10° E visible
06 Jul - 04:41:05 10° SW 04:58:38 84° SE 05:10:22 10° ENE visible
06 Jul - 06:57:10 10° W 07:09:44 35° NW 07:17:48 10° NNE daylight
06 Jul - 15:50:53 10° NNW 15:54:43 29° NE 16:00:00 10° E daylight
06 Jul - 17:58:10 10° W 18:03:30 42° SSW 18:11:59 10° SE daylight
06 Jul - 20:10:10 10° SW 20:15:38 16° SSW 20:22:22 10° SSE visible
06 Jul - 22:25:59 10° SSW 22:31:10 13° S 22:37:10 10° SSE visible
07 Jul - 00:37:04 10° SSW 00:48:27 22° SSE 01:01:04 10° ESE visible
07 Jul - 02:47:33 10° SW 03:04:23 48° SSE 03:18:28 10° E visible
07 Jul - 05:00:18 10° WSW 05:17:40 77° NW 05:29:08 10° NE visible
07 Jul - 07:18:09 10° W 07:28:38 25° NW 07:35:39 10° NNE daylight
07 Jul - 16:09:03 10° NW 16:13:19 55° NE 16:19:35 10° ESE daylight
07 Jul - 18:17:39 10° W 18:22:48 28° SSW 18:30:22 10° SSE visible
07 Jul - 20:31:34 10° SSW 20:35:41 13° S 20:40:17 10° SSE visible
07 Jul - 22:45:56 10° SSW 22:51:44 13° S 22:58:44 10° SE night (unlit)
08 Jul - 00:55:38 10° SSW 01:08:39 27° SSE 01:22:35 10° ESE visible
08 Jul - 03:06:13 10° SW 03:23:53 60° SSE 03:38:04 10° ENE visible
08 Jul - 05:19:52 10° WSW 05:36:36 60° NW 05:47:39 10° NE visible
08 Jul - 07:40:01 10° WNW 07:47:43 17° NW 07:53:05 10° N daylight
08 Jul - 16:27:37 10° WNW 16:32:03 80° SSW 16:38:41 10° SE daylight
08 Jul - 18:37:41 10° WSW 18:42:20 19° SSW 18:48:25 10° SSE visible
08 Jul - 20:54:12 10° S 20:55:54 10° S 20:57:39 10° S visible
08 Jul - 23:04:59 10° SSW 23:12:14 15° SSE 23:21:11 10° SE night (unlit)
09 Jul - 01:14:06 10° SSW 01:28:36 34° SSE 01:43:32 10° E visible
09 Jul - 03:25:02 10° SW 03:43:11 76° SE 03:57:18 10° ENE visible
09 Jul - 05:39:51 10° WSW 05:55:30 45° NW 06:05:59 10° NNE visible
09 Jul - 08:03:40 10° NW 08:07:02 11° NNW 08:09:16 10° NNW daylight
09 Jul - 14:39:51 10° N 14:42:39 18° NE 14:45:54 10° E daylight
09 Jul - 16:46:34 10° WNW 16:50:57 44° SSW 16:57:23 10° SE daylight
09 Jul - 18:58:33 10° SW 19:02:00 13° SSW 19:05:59 10° SSE visible
09 Jul - 23:23:33 10° SSW 23:32:35 18° SSE 23:43:43 10° ESE night (unlit)
10 Jul - 01:32:35 10° SW 01:48:18 43° SSE 02:03:56 10° E visible
10 Jul - 03:44:03 10° SW 04:02:20 87° NW 04:16:14 10° NE visible
10 Jul - 06:00:22 10° W 06:14:29 34° NW 06:24:07 10° NNE daylight
10 Jul - 14:57:40 10° NNW 15:01:20 36° NE 15:05:47 10° ESE daylight
10 Jul - 17:05:59 10° W 17:10:05 26° SSW 17:15:41 10° SSE daylight
10 Jul - 23:41:55 10° SSW 23:52:43 23° SSE 00:05:51 10° ESE visible
11 Jul - 01:51:06 10° SW 02:07:49 54° SSE 02:23:51 10° ENE visible
11 Jul - 04:03:20 10° WSW 04:21:24 70° NW 04:34:56 10° NE visible
11 Jul - 06:21:33 10° W 06:33:38 25° NW 06:42:03 10° NNE daylight
11 Jul - 15:16:04 10° NW 15:20:01 77° NE 15:25:00 10° ESE daylight
11 Jul - 17:26:03 10° WSW 17:29:25 16° SSW 17:33:30 10° SSE daylight
11 Jul - 21:53:53 10° S 21:57:00 11° SSE 22:01:08 10° SSE night (unlit)
